Time,TemperatureF,DewpointF,PressureIn,WindDirection,WindDirectionDegrees,WindSpeedMPH,WindSpeedGustMPH,Humidity,HourlyPrecipIn,Conditions,Clouds,dailyrainin,SoftwareType,DateUTC
2013-06-01 00:00:00,64.1,60.8,29.86,ESE,114,3.0,5.0,89,0.34,,,0.00,Wunderground v.1.15,2013-06-01 05:00:00,
2013-06-01 00:10:00,64.1,61.1,29.86,ESE,123,2.0,2.0,90,0.24,,,0.04,Wunderground v.1.15,2013-06-01 05:10:00,
2013-06-01 00:15:00,64.1,61.1,29.86,SE,127,2.0,2.0,90,0.22,,,0.06,Wunderground v.1.15,2013-06-01 05:15:00,
2013-06-01 00:25:00,64.2,61.2,29.86,SE,125,4.0,4.0,90,0.18,,,0.10,Wunderground v.1.15,2013-06-01 05:25:00,
2013-06-01 00:30:00,64.2,61.2,29.86,SSE,167,4.0,4.0,90,0.16,,,0.11,Wunderground v.1.15,2013-06-01 05:30:00,
2013-06-01 00:40:00,64.1,61.1,29.84,SSE,151,5.0,5.0,90,0.14,,,0.14,Wunderground v.1.15,2013-06-01 05:40:00,
2013-06-01 00:45:00,64.1,61.1,29.84,South,170,6.0,10.0,90,0.27,,,0.16,Wunderground v.1.15,2013-06-01 05:45:00,
2013-06-01 00:55:00,64.3,61.3,29.86,South,181,11.0,13.0,90,0.11,,,0.18,Wunderground v.1.15,2013-06-01 05:55:00,
2013-06-01 01:00:00,64.3,61.3,29.86,SW,219,12.0,13.0,90,0.12,,,0.19,Wunderground v.1.15,2013-06-01 06:00:00,
2013-06-01 01:10:00,64.4,61.4,29.86,SW,215,9.0,9.0,90,0.14,,,0.21,Wunderground v.1.15,2013-06-01 06:10:00,
2013-06-01 01:15:00,64.4,61.4,29.86,SSW,194,9.0,9.0,90,0.23,,,0.23,Wunderground v.1.15,2013-06-01 06:15:00,
2013-06-01 01:25:00,64.3,61.3,29.86,SSW,205,10.0,12.0,90,0.14,,,0.26,Wunderground v.1.15,2013-06-01 06:25:00,
2013-06-01 01:30:00,64.3,61.3,29.85,SSW,213,10.0,10.0,90,0.16,,,0.27,Wunderground v.1.15,2013-06-01 06:30:00,
2013-06-01 01:40:00,64.3,61.3,29.86,SSW,211,17.0,22.0,90,0.26,,,0.31,Wunderground v.1.15,2013-06-01 06:40:00,
2013-06-01 01:45:00,64.2,60.9,29.86,SSW,198,19.0,22.0,89,0.28,,,0.33,Wunderground v.1.15,2013-06-01 06:45:00,
2013-06-01 01:50:00,64.2,61.2,29.85,SW,219,17.0,17.0,90,0.22,,,0.35,Wunderground v.1.15,2013-06-01 06:50:00,
2013-06-01 02:00:00,64.2,61.2,29.85,SSW,205,11.0,13.0,90,0.06,,,0.35,Wunderground v.1.15,2013-06-01 07:00:00,
2013-06-01 02:05:00,64.2,61.2,29.85,SW,220,12.0,17.0,90,0.04,,,0.36,Wunderground v.1.15,2013-06-01 07:05:00,
2013-06-01 02:15:00,64.3,61.3,29.84,SSW,213,14.0,17.0,90,0.14,,,0.38,Wunderground v.1.15,2013-06-01 07:15:00,
2013-06-01 02:25:00,64.4,61.4,29.83,SSW,210,14.0,14.0,90,0.12,,,0.40,Wunderground v.1.15,2013-06-01 07:25:00,
2013-06-01 02:30:00,64.4,61.4,29.83,SSW,204,11.0,11.0,90,0.13,,,0.41,Wunderground v.1.15,2013-06-01 07:30:00,
2013-06-01 02:35:00,64.4,61.4,29.82,SSW,208,8.0,11.0,90,0.12,,,0.42,Wunderground v.1.15,2013-06-01 07:35:00,
2013-06-01 02:45:00,64.2,61.2,29.81,South,186,5.0,6.0,90,0.06,,,0.43,Wunderground v.1.15,2013-06-01 07:45:00,
2013-06-01 02:50:00,64.2,61.2,29.80,South,177,5.0,5.0,90,0.06,,,0.43,Wunderground v.1.15,2013-06-01 07:50:00,
2013-06-01 03:00:00,64.1,61.1,29.83,SW,220,6.0,12.0,90,0.00,,,0.43,Wunderground v.1.15,2013-06-01 08:00:00,
2013-06-01 03:05:00,64.1,61.1,29.82,SSW,213,9.0,12.0,90,0.00,,,0.43,Wunderground v.1.15,2013-06-01 08:05:00,
2013-06-01 03:15:00,64.0,61.0,29.82,SW,217,11.0,11.0,90,0.00,,,0.44,Wunderground v.1.15,2013-06-01 08:15:00,
2013-06-01 03:20:00,64.0,61.0,29.81,SSW,213,11.0,11.0,90,0.00,,,0.44,Wunderground v.1.15,2013-06-01 08:20:00,
2013-06-01 03:30:00,64.0,61.0,29.80,South,172,6.0,6.0,90,0.04,,,0.45,Wunderground v.1.15,2013-06-01 08:30:00,
2013-06-01 03:40:00,64.0,61.0,29.79,SSW,198,6.0,7.0,90,0.07,,,0.46,Wunderground v.1.15,2013-06-01 08:40:00,
2013-06-01 03:45:00,64.0,61.0,29.79,South,187,5.0,7.0,90,0.06,,,0.47,Wunderground v.1.15,2013-06-01 08:45:00,
2013-06-01 03:50:00,64.0,61.0,29.79,SSE,161,6.0,6.0,90,0.06,,,0.47,Wunderground v.1.15,2013-06-01 08:50:00,
2013-06-01 04:00:00,63.9,60.9,29.77,SSE,152,7.0,9.0,90,0.04,,,0.47,Wunderground v.1.15,2013-06-01 09:00:00,
2013-06-01 04:05:00,63.9,60.9,29.74,SE,128,7.0,9.0,90,0.04,,,0.48,Wunderground v.1.15,2013-06-01 09:05:00,
2013-06-01 04:15:00,63.8,60.8,29.74,SSE,153,6.0,8.0,90,0.04,,,0.48,Wunderground v.1.15,2013-06-01 09:15:00,
2013-06-01 04:20:00,63.8,60.8,29.73,ESE,121,7.0,7.0,90,0.00,,,0.48,Wunderground v.1.15,2013-06-01 09:20:00,
2013-06-01 04:30:00,63.6,60.6,29.74,SSE,150,8.0,9.0,90,0.00,,,0.48,Wunderground v.1.15,2013-06-01 09:30:00,
2013-06-01 04:40:00,63.6,60.6,29.74,SSE,148,7.0,7.0,90,0.00,,,0.48,Wunderground v.1.15,2013-06-01 09:40:00,
2013-06-01 04:45:00,63.6,60.6,29.75,South,173,7.0,7.0,90,0.00,,,0.48,Wunderground v.1.15,2013-06-01 09:45:00,
2013-06-01 04:55:00,63.4,60.4,29.77,SSE,154,7.0,10.0,90,0.00,,,0.48,Wunderground v.1.15,2013-06-01 09:55:00,
2013-06-01 05:00:00,63.3,60.3,29.78,South,181,6.0,6.0,90,0.00,,,0.48,Wunderground v.1.15,2013-06-01 10:00:00,
2013-06-01 05:10:00,63.1,60.1,29.77,SSE,162,5.0,5.0,90,0.00,,,0.48,Wunderground v.1.15,2013-06-01 10:10:00,
2013-06-01 05:15:00,63.1,60.1,29.78,SSW,199,4.0,5.0,90,0.00,,,0.48,Wunderground v.1.15,2013-06-01 10:15:00,
2013-06-01 05:25:00,62.9,59.9,29.80,SW,224,4.0,7.0,90,0.00,,,0.48,Wunderground v.1.15,2013-06-01 10:25:00,
2013-06-01 05:30:00,62.9,59.9,29.81,WSW,251,6.0,10.0,90,0.00,,,0.48,Wunderground v.1.15,2013-06-01 10:30:00,
2013-06-01 05:40:00,62.9,59.9,29.81,SW,234,8.0,8.0,90,0.00,,,0.48,Wunderground v.1.15,2013-06-01 10:40:00,
2013-06-01 05:45:00,62.9,59.9,29.81,SW,234,8.0,8.0,90,0.00,,,0.48,Wunderground v.1.15,2013-06-01 10:45:00,
2013-06-01 05:55:00,62.9,59.9,29.82,SW,225,8.0,10.0,90,0.00,,,0.48,Wunderground v.1.15,2013-06-01 10:55:00,
2013-06-01 06:00:00,62.9,59.9,29.81,SW,219,8.0,8.0,90,0.00,,,0.48,Wunderground v.1.15,2013-06-01 11:00:00,
2013-06-01 06:10:00,62.9,59.9,29.81,SW,215,6.0,6.0,90,0.00,,,0.48,Wunderground v.1.15,2013-06-01 11:10:00,
2013-06-01 06:15:00,63.0,60.0,29.82,SSW,213,3.0,6.0,90,0.00,,,0.48,Wunderground v.1.15,2013-06-01 11:15:00,
2013-06-01 06:25:00,62.9,59.9,29.83,SSW,209,6.0,6.0,90,0.00,,,0.48,Wunderground v.1.15,2013-06-01 11:25:00,
2013-06-01 06:30:00,63.0,60.0,29.83,SSW,210,6.0,6.0,90,0.00,,,0.48,Wunderground v.1.15,2013-06-01 11:30:00,
2013-06-01 06:40:00,62.9,59.9,29.83,SSW,211,5.0,5.0,90,0.00,,,0.48,Wunderground v.1.15,2013-06-01 11:40:00,
2013-06-01 06:50:00,62.9,59.9,29.82,SSW,211,1.0,2.0,90,0.00,,,0.48,Wunderground v.1.15,2013-06-01 11:50:00,
2013-06-01 06:55:00,63.0,60.0,29.81,SSW,203,1.0,3.0,90,0.00,,,0.48,Wunderground v.1.15,2013-06-01 11:55:00,
2013-06-01 07:00:00,63.0,60.0,29.81,SSE,166,2.0,5.0,90,0.00,,,0.48,Wunderground v.1.15,2013-06-01 12:00:00,
2013-06-01 07:10:00,63.2,60.5,29.83,South,173,3.0,3.0,91,0.00,,,0.48,Wunderground v.1.15,2013-06-01 12:10:00,
2013-06-01 07:15:00,63.3,60.6,29.83,SSW,205,3.0,7.0,91,0.00,,,0.48,Wunderground v.1.15,2013-06-01 12:15:00,
2013-06-01 07:25:00,63.5,60.8,29.83,SSW,211,6.0,7.0,91,0.00,,,0.48,Wunderground v.1.15,2013-06-01 12:25:00,
2013-06-01 07:35:00,63.9,61.2,29.84,SSW,209,7.0,8.0,91,0.00,,,0.48,Wunderground v.1.15,2013-06-01 12:35:00,
2013-06-01 07:40:00,64.0,61.3,29.85,SW,216,6.0,11.0,91,0.00,,,0.48,Wunderground v.1.15,2013-06-01 12:40:00,
2013-06-01 07:50:00,64.5,61.8,29.84,South,186,5.0,5.0,91,0.00,,,0.48,Wunderground v.1.15,2013-06-01 12:50:00,
2013-06-01 07:55:00,64.9,62.2,29.85,SSW,210,5.0,11.0,91,0.00,,,0.48,Wunderground v.1.15,2013-06-01 12:55:00,
2013-06-01 08:05:00,65.3,62.3,29.84,SSW,210,6.0,6.0,90,0.00,,,0.48,Wunderground v.1.15,2013-06-01 13:05:00,
2013-06-01 08:10:00,65.5,62.5,29.85,SSW,212,6.0,10.0,90,0.00,,,0.48,Wunderground v.1.15,2013-06-01 13:10:00,
2013-06-01 08:15:00,65.6,62.3,29.85,SSW,213,9.0,17.0,89,0.00,,,0.48,Wunderground v.1.15,2013-06-01 13:15:00,
2013-06-01 08:25:00,65.6,61.9,29.86,SSW,212,9.0,17.0,88,0.00,,,0.48,Wunderground v.1.15,2013-06-01 13:25:00,
2013-06-01 08:35:00,65.5,61.5,29.85,SW,218,12.0,12.0,87,0.00,,,0.48,Wunderground v.1.15,2013-06-01 13:35:00,
2013-06-01 08:40:00,65.6,61.9,29.85,SSW,207,9.0,9.0,88,0.00,,,0.48,Wunderground v.1.15,2013-06-01 13:40:00,
2013-06-01 08:50:00,65.6,61.3,29.85,SW,218,10.0,13.0,86,0.00,,,0.48,Wunderground v.1.15,2013-06-01 13:50:00,
2013-06-01 08:55:00,65.6,61.3,29.85,SSW,200,9.0,13.0,86,0.00,,,0.48,Wunderground v.1.15,2013-06-01 13:55:00,
2013-06-01 09:05:00,65.8,61.5,29.85,SSW,207,10.0,17.0,86,0.00,,,0.48,Wunderground v.1.15,2013-06-01 14:05:00,
2013-06-01 09:10:00,65.9,61.9,29.85,SSW,213,11.0,11.0,87,0.00,,,0.48,Wunderground v.1.15,2013-06-01 14:10:00,
2013-06-01 09:20:00,66.3,62.0,29.85,SSW,206,10.0,19.0,86,0.00,,,0.48,Wunderground v.1.15,2013-06-01 14:20:00,
2013-06-01 09:25:00,66.5,62.2,29.85,SW,219,12.0,19.0,86,0.00,,,0.48,Wunderground v.1.15,2013-06-01 14:25:00,
2013-06-01 09:35:00,66.4,61.8,29.86,SW,219,16.0,32.0,85,0.00,,,0.48,Wunderground v.1.15,2013-06-01 14:35:00,
2013-06-01 09:40:00,66.3,61.7,29.86,SSW,200,18.0,18.0,85,0.00,,,0.48,Wunderground v.1.15,2013-06-01 14:40:00,
2013-06-01 09:50:00,66.0,61.4,29.85,SSW,205,15.0,15.0,85,0.00,,,0.48,Wunderground v.1.15,2013-06-01 14:50:00,
2013-06-01 09:55:00,65.9,61.3,29.85,SW,219,13.0,15.0,85,0.00,,,0.48,Wunderground v.1.15,2013-06-01 14:55:00,
2013-06-01 10:05:00,65.8,61.5,29.85,SSW,213,12.0,14.0,86,0.00,,,0.48,Wunderground v.1.15,2013-06-01 15:05:00,
2013-06-01 10:10:00,65.9,61.6,29.86,SW,224,13.0,13.0,86,0.00,,,0.48,Wunderground v.1.15,2013-06-01 15:10:00,
2013-06-01 10:20:00,66.1,61.8,29.86,SSW,205,15.0,15.0,86,0.00,,,0.48,Wunderground v.1.15,2013-06-01 15:20:00,
2013-06-01 10:25:00,66.3,62.0,29.85,SSW,198,13.0,15.0,86,0.00,,,0.48,Wunderground v.1.15,2013-06-01 15:25:00,
2013-06-01 10:35:00,67.3,63.0,29.85,SW,219,11.0,14.0,86,0.00,,,0.48,Wunderground v.1.15,2013-06-01 15:35:00,
2013-06-01 10:40:00,67.9,63.6,29.84,SSW,213,11.0,19.0,86,0.00,,,0.48,Wunderground v.1.15,2013-06-01 15:40:00,
2013-06-01 10:50:00,69.9,64.8,29.84,SSW,197,11.0,13.0,84,0.00,,,0.48,Wunderground v.1.15,2013-06-01 15:50:00,
2013-06-01 10:55:00,70.7,64.6,29.84,SW,227,11.0,22.0,81,0.00,,,0.48,Wunderground v.1.15,2013-06-01 15:55:00,
2013-06-01 11:00:00,71.2,65.1,29.83,SSW,205,10.0,15.0,81,0.00,,,0.48,Wunderground v.1.15,2013-06-01 16:00:00,
2013-06-01 11:10:00,72.1,64.9,29.82,South,181,9.0,9.0,78,0.00,,,0.48,Wunderground v.1.15,2013-06-01 16:10:00,
2013-06-01 11:15:00,72.4,64.8,29.82,South,188,9.0,9.0,77,0.00,,,0.48,Wunderground v.1.15,2013-06-01 16:15:00,
2013-06-01 11:25:00,73.0,65.4,29.82,SSE,153,10.0,14.0,77,0.00,,,0.48,Wunderground v.1.15,2013-06-01 16:25:00,
2013-06-01 11:30:00,73.3,65.7,29.82,SW,232,10.0,10.0,77,0.00,,,0.48,Wunderground v.1.15,2013-06-01 16:30:00,
2013-06-01 11:40:00,74.2,65.8,29.81,South,183,8.0,8.0,75,0.00,,,0.48,Wunderground v.1.15,2013-06-01 16:40:00,
2013-06-01 11:45:00,74.5,65.3,29.80,SW,221,8.0,12.0,73,0.00,,,0.48,Wunderground v.1.15,2013-06-01 16:45:00,
2013-06-01 11:55:00,75.3,65.6,29.80,SSE,165,8.0,13.0,72,0.00,,,0.48,Wunderground v.1.15,2013-06-01 16:55:00,
2013-06-01 12:00:00,75.4,64.9,29.80,SSE,160,9.0,9.0,70,0.00,,,0.48,Wunderground v.1.15,2013-06-01 17:00:00,
2013-06-01 12:10:00,75.4,65.7,29.79,SSE,163,8.0,8.0,72,0.00,,,0.48,Wunderground v.1.15,2013-06-01 17:10:00,
2013-06-01 12:15:00,75.6,65.9,29.79,South,170,8.0,11.0,72,0.00,,,0.48,Wunderground v.1.15,2013-06-01 17:15:00,
2013-06-01 12:20:00,75.8,65.7,29.79,South,177,8.0,8.0,71,0.00,,,0.48,Wunderground v.1.15,2013-06-01 17:20:00,
2013-06-01 12:30:00,76.3,66.6,29.80,SSW,194,7.0,8.0,72,0.00,,,0.48,Wunderground v.1.15,2013-06-01 17:30:00,
2013-06-01 12:40:00,76.6,66.9,29.81,SW,217,9.0,15.0,72,0.00,,,0.48,Wunderground v.1.15,2013-06-01 17:40:00,
2013-06-01 12:45:00,76.3,66.6,29.82,SW,222,13.0,15.0,72,0.00,,,0.48,Wunderground v.1.15,2013-06-01 17:45:00,
2013-06-01 12:50:00,75.5,65.0,29.83,SW,221,18.0,18.0,70,0.00,,,0.48,Wunderground v.1.15,2013-06-01 17:50:00,
2013-06-01 13:00:00,74.3,65.1,29.82,SSW,194,16.0,16.0,73,0.00,,,0.48,Wunderground v.1.15,2013-06-01 18:00:00,
2013-06-01 13:05:00,73.9,64.7,29.82,SW,214,15.0,20.0,73,0.00,,,0.48,Wunderground v.1.15,2013-06-01 18:05:00,
2013-06-01 13:15:00,73.0,65.0,29.81,SSW,212,15.0,18.0,76,0.00,,,0.48,Wunderground v.1.15,2013-06-01 18:15:00,
2013-06-01 13:25:00,72.6,65.0,29.80,SW,217,9.0,12.0,77,0.00,,,0.48,Wunderground v.1.15,2013-06-01 18:25:00,
2013-06-01 13:30:00,72.5,64.5,29.81,SW,217,8.0,8.0,76,0.00,,,0.48,Wunderground v.1.15,2013-06-01 18:30:00,
2013-06-01 13:35:00,72.3,64.3,29.81,South,176,8.0,8.0,76,0.00,,,0.48,Wunderground v.1.15,2013-06-01 18:35:00,
2013-06-01 13:45:00,72.4,65.5,29.81,SSE,157,7.0,7.0,79,0.00,,,0.48,Wunderground v.1.15,2013-06-01 18:45:00,
2013-06-01 13:55:00,72.3,63.5,29.82,SE,132,8.0,9.0,74,0.00,,,0.48,Wunderground v.1.15,2013-06-01 18:55:00,
2013-06-01 14:00:00,71.8,63.4,29.82,SSE,161,8.0,8.0,75,0.00,,,0.48,Wunderground v.1.15,2013-06-01 19:00:00,
2013-06-01 14:10:00,71.3,64.1,29.82,SSW,204,9.0,18.0,78,0.00,,,0.48,Wunderground v.1.15,2013-06-01 19:10:00,
2013-06-01 14:15:00,71.2,64.4,29.81,South,181,10.0,18.0,79,0.00,,,0.48,Wunderground v.1.15,2013-06-01 19:15:00,
2013-06-01 14:25:00,71.4,64.5,29.81,SSW,204,7.0,9.0,79,0.00,,,0.48,Wunderground v.1.15,2013-06-01 19:25:00,
2013-06-01 14:30:00,71.7,64.1,29.81,South,182,7.0,7.0,77,0.00,,,0.48,Wunderground v.1.15,2013-06-01 19:30:00,
2013-06-01 14:40:00,71.7,64.5,29.81,SW,217,9.0,9.0,78,0.00,,,0.48,Wunderground v.1.15,2013-06-01 19:40:00,
2013-06-01 14:45:00,71.6,64.0,29.81,SSW,209,9.0,14.0,77,0.00,,,0.48,Wunderground v.1.15,2013-06-01 19:45:00,
2013-06-01 14:55:00,71.3,64.1,29.80,SSW,213,12.0,17.0,78,0.00,,,0.48,Wunderground v.1.15,2013-06-01 19:55:00,
2013-06-01 15:00:00,71.3,64.4,29.80,SSW,213,11.0,13.0,79,0.00,,,0.48,Wunderground v.1.15,2013-06-01 20:00:00,
2013-06-01 15:10:00,71.3,64.4,29.81,SSW,199,9.0,9.0,79,0.00,,,0.48,Wunderground v.1.15,2013-06-01 20:10:00,
2013-06-01 15:15:00,71.5,65.4,29.80,SSW,194,10.0,10.0,81,0.00,,,0.48,Wunderground v.1.15,2013-06-01 20:15:00,
2013-06-01 15:25:00,72.2,65.0,29.80,SSE,148,10.0,12.0,78,0.00,,,0.48,Wunderground v.1.15,2013-06-01 20:25:00,
2013-06-01 15:30:00,72.6,65.3,29.80,SW,215,11.0,16.0,78,0.00,,,0.48,Wunderground v.1.15,2013-06-01 20:30:00,
2013-06-01 15:35:00,72.9,65.3,29.80,SSW,204,10.0,16.0,77,0.00,,,0.48,Wunderground v.1.15,2013-06-01 20:35:00,
2013-06-01 15:45:00,73.4,65.4,29.80,South,188,12.0,13.0,76,0.00,,,0.48,Wunderground v.1.15,2013-06-01 20:45:00,
2013-06-01 15:50:00,73.4,65.0,29.79,South,175,11.0,11.0,75,0.00,,,0.48,Wunderground v.1.15,2013-06-01 20:50:00,
2013-06-01 16:00:00,73.4,65.0,29.78,SSW,207,13.0,22.0,75,0.00,,,0.48,Wunderground v.1.15,2013-06-01 21:00:00,
2013-06-01 16:05:00,73.4,65.0,29.79,South,184,14.0,22.0,75,0.00,,,0.48,Wunderground v.1.15,2013-06-01 21:05:00,
2013-06-01 16:15:00,73.2,64.4,29.79,South,178,11.0,17.0,74,0.00,,,0.48,Wunderground v.1.15,2013-06-01 21:15:00,
2013-06-01 16:20:00,73.2,65.2,29.78,SW,217,9.0,12.0,76,0.00,,,0.48,Wunderground v.1.15,2013-06-01 21:20:00,
2013-06-01 16:30:00,73.3,64.9,29.78,SW,216,14.0,14.0,75,0.00,,,0.48,Wunderground v.1.15,2013-06-01 21:30:00,
2013-06-01 16:35:00,73.2,64.8,29.77,South,172,11.0,17.0,75,0.00,,,0.48,Wunderground v.1.15,2013-06-01 21:35:00,
2013-06-01 16:40:00,73.0,64.2,29.78,SSE,153,9.0,9.0,74,0.00,,,0.48,Wunderground v.1.15,2013-06-01 21:40:00,
2013-06-01 16:50:00,72.9,64.9,29.77,SW,228,12.0,12.0,76,0.00,,,0.48,Wunderground v.1.15,2013-06-01 21:50:00,
2013-06-01 16:55:00,72.6,64.6,29.77,South,182,9.0,12.0,76,0.00,,,0.48,Wunderground v.1.15,2013-06-01 21:55:00,
2013-06-01 17:05:00,72.0,64.4,29.77,South,187,11.0,11.0,77,0.00,,,0.48,Wunderground v.1.15,2013-06-01 22:05:00,
2013-06-01 17:15:00,71.6,64.7,29.77,SSW,209,9.0,15.0,79,0.00,,,0.48,Wunderground v.1.15,2013-06-01 22:15:00,
2013-06-01 17:20:00,71.4,64.5,29.77,SSW,209,9.0,9.0,79,0.00,,,0.48,Wunderground v.1.15,2013-06-01 22:20:00,
2013-06-01 17:30:00,71.2,64.0,29.76,SSW,205,14.0,14.0,78,0.00,,,0.48,Wunderground v.1.15,2013-06-01 22:30:00,
2013-06-01 17:35:00,71.1,63.5,29.76,SSW,201,15.0,19.0,77,0.00,,,0.48,Wunderground v.1.15,2013-06-01 22:35:00,
2013-06-01 17:45:00,71.0,63.8,29.76,SSW,203,15.0,18.0,78,0.00,,,0.48,Wunderground v.1.15,2013-06-01 22:45:00,
2013-06-01 17:50:00,71.0,63.8,29.76,SSW,210,15.0,15.0,78,0.00,,,0.48,Wunderground v.1.15,2013-06-01 22:50:00,
2013-06-01 18:00:00,70.9,63.7,29.76,SW,219,15.0,19.0,78,0.00,,,0.48,Wunderground v.1.15,2013-06-01 23:00:00,
2013-06-01 18:10:00,71.1,63.9,29.76,SW,215,16.0,17.0,78,0.00,,,0.48,Wunderground v.1.15,2013-06-01 23:10:00,
2013-06-01 18:15:00,71.2,64.0,29.76,SSW,211,15.0,17.0,78,0.00,,,0.48,Wunderground v.1.15,2013-06-01 23:15:00,
2013-06-01 18:25:00,71.1,64.3,29.76,SSW,209,12.0,13.0,79,0.00,,,0.48,Wunderground v.1.15,2013-06-01 23:25:00,
2013-06-01 18:30:00,71.2,64.0,29.76,SW,217,15.0,15.0,78,0.00,,,0.48,Wunderground v.1.15,2013-06-01 23:30:00,
2013-06-01 18:40:00,71.5,64.3,29.76,SSW,211,15.0,17.0,78,0.00,,,0.48,Wunderground v.1.15,2013-06-01 23:40:00,
2013-06-01 18:45:00,71.4,64.2,29.76,SW,215,17.0,22.0,78,0.00,,,0.48,Wunderground v.1.15,2013-06-01 23:45:00,
2013-06-01 18:55:00,71.1,63.9,29.76,SW,215,16.0,18.0,78,0.00,,,0.48,Wunderground v.1.15,2013-06-01 23:55:00,
2013-06-01 19:00:00,71.0,64.2,29.76,SSW,205,15.0,15.0,79,0.00,,,0.48,Wunderground v.1.15,2013-06-02 00:00:00,
2013-06-01 19:10:00,70.8,64.3,29.75,SSW,204,12.0,12.0,80,0.00,,,0.48,Wunderground v.1.15,2013-06-02 00:10:00,
2013-06-01 19:15:00,70.8,64.3,29.76,SW,222,11.0,12.0,80,0.00,,,0.48,Wunderground v.1.15,2013-06-02 00:15:00,
2013-06-01 19:20:00,70.7,64.2,29.76,SW,219,11.0,11.0,80,0.00,,,0.48,Wunderground v.1.15,2013-06-02 00:20:00,
2013-06-01 19:30:00,70.3,63.8,29.76,SSW,211,13.0,13.0,80,0.00,,,0.48,Wunderground v.1.15,2013-06-02 00:30:00,
2013-06-01 19:35:00,69.9,63.4,29.76,SSW,213,13.0,14.0,80,0.00,,,0.48,Wunderground v.1.15,2013-06-02 00:35:00,
2013-06-01 19:45:00,69.4,63.3,29.77,SSW,211,12.0,17.0,81,0.00,,,0.48,Wunderground v.1.15,2013-06-02 00:45:00,
2013-06-01 19:50:00,69.2,63.1,29.77,SSW,212,13.0,13.0,81,0.00,,,0.48,Wunderground v.1.15,2013-06-02 00:50:00,
2013-06-01 20:00:00,68.9,63.2,29.77,SW,219,11.0,12.0,82,0.00,,,0.48,Wunderground v.1.15,2013-06-02 01:00:00,
2013-06-01 20:05:00,68.8,63.4,29.78,SW,229,12.0,12.0,83,0.00,,,0.48,Wunderground v.1.15,2013-06-02 01:05:00,
2013-06-01 20:15:00,67.8,58.8,29.80,WNW,285,13.0,13.0,73,0.00,,,0.48,Wunderground v.1.15,2013-06-02 01:15:00,
2013-06-01 20:20:00,67.0,59.2,29.80,WSW,248,11.0,16.0,76,0.00,,,0.48,Wunderground v.1.15,2013-06-02 01:20:00,
2013-06-01 20:30:00,65.4,59.4,29.80,WSW,246,10.0,10.0,81,0.68,,,0.54,Wunderground v.1.15,2013-06-02 01:30:00,
2013-06-01 20:35:00,64.6,59.0,29.80,WSW,241,8.0,10.0,82,0.47,,,0.57,Wunderground v.1.15,2013-06-02 01:35:00,
2013-06-01 20:45:00,63.4,58.8,29.80,SW,218,6.0,7.0,85,0.26,,,0.61,Wunderground v.1.15,2013-06-02 01:45:00,
2013-06-01 20:50:00,63.1,58.8,29.80,SSW,212,6.0,8.0,86,0.17,,,0.62,Wunderground v.1.15,2013-06-02 01:50:00,
2013-06-01 21:00:00,62.6,58.7,29.80,SSW,207,4.0,4.0,87,0.05,,,0.62,Wunderground v.1.15,2013-06-02 02:00:00,
2013-06-01 21:05:00,62.5,58.9,29.81,SSW,206,3.0,4.0,88,0.00,,,0.62,Wunderground v.1.15,2013-06-02 02:05:00,
2013-06-01 21:15:00,62.4,58.8,29.81,SSW,209,4.0,4.0,88,0.00,,,0.62,Wunderground v.1.15,2013-06-02 02:15:00,
2013-06-01 21:20:00,62.3,58.7,29.81,SSW,209,4.0,5.0,88,0.00,,,0.62,Wunderground v.1.15,2013-06-02 02:20:00,
2013-06-01 21:25:00,62.2,58.9,29.81,SSW,209,2.0,5.0,89,0.00,,,0.62,Wunderground v.1.15,2013-06-02 02:25:00,
2013-06-01 21:35:00,62.0,58.7,29.81,SSW,211,3.0,5.0,89,0.00,,,0.62,Wunderground v.1.15,2013-06-02 02:35:00,
2013-06-01 21:40:00,61.8,58.5,29.81,SSW,210,3.0,3.0,89,0.00,,,0.62,Wunderground v.1.15,2013-06-02 02:40:00,
2013-06-01 21:50:00,61.7,58.4,29.82,SSW,208,4.0,4.0,89,0.00,,,0.62,Wunderground v.1.15,2013-06-02 02:50:00,
2013-06-01 21:55:00,61.6,58.3,29.82,SSW,207,4.0,4.0,89,0.00,,,0.62,Wunderground v.1.15,2013-06-02 02:55:00,
2013-06-01 22:05:00,61.5,58.2,29.82,SSW,207,4.0,5.0,89,0.00,,,0.62,Wunderground v.1.15,2013-06-02 03:05:00,
2013-06-01 22:10:00,61.4,58.1,29.82,SW,214,4.0,4.0,89,0.00,,,0.62,Wunderground v.1.15,2013-06-02 03:10:00,
2013-06-01 22:20:00,61.4,58.4,29.82,SSW,212,6.0,7.0,90,0.00,,,0.62,Wunderground v.1.15,2013-06-02 03:20:00,
2013-06-01 22:30:00,61.8,59.1,29.82,SW,219,9.0,11.0,91,0.00,,,0.62,Wunderground v.1.15,2013-06-02 03:30:00,
2013-06-01 22:35:00,62.1,59.4,29.83,SW,223,10.0,11.0,91,0.00,,,0.62,Wunderground v.1.15,2013-06-02 03:35:00,
2013-06-01 22:45:00,62.5,59.5,29.83,SW,222,10.0,10.0,90,0.00,,,0.62,Wunderground v.1.15,2013-06-02 03:45:00,
2013-06-01 22:50:00,62.6,59.6,29.83,SW,221,9.0,9.0,90,0.00,,,0.62,Wunderground v.1.15,2013-06-02 03:50:00,
2013-06-01 23:00:00,62.7,59.4,29.83,SW,221,9.0,9.0,89,0.00,,,0.62,Wunderground v.1.15,2013-06-02 04:00:00,
2013-06-01 23:05:00,62.6,59.3,29.83,SW,222,9.0,9.0,89,0.00,,,0.62,Wunderground v.1.15,2013-06-02 04:05:00,
2013-06-01 23:10:00,62.5,59.2,29.83,SW,229,8.0,9.0,89,0.00,,,0.62,Wunderground v.1.15,2013-06-02 04:10:00,
2013-06-01 23:15:00,62.5,59.2,29.83,SW,232,8.0,9.0,89,0.00,,,0.62,Wunderground v.1.15,2013-06-02 04:15:00,
2013-06-01 23:20:00,62.4,59.1,29.83,SW,233,9.0,9.0,89,0.00,,,0.62,Wunderground v.1.15,2013-06-02 04:20:00,
2013-06-01 23:25:00,62.3,59.0,29.83,SW,229,9.0,9.0,89,0.00,,,0.62,Wunderground v.1.15,2013-06-02 04:25:00,
2013-06-01 23:30:00,62.2,58.6,29.83,SW,236,9.0,9.0,88,0.00,,,0.62,Wunderground v.1.15,2013-06-02 04:30:00,
2013-06-01 23:40:00,62.0,58.4,29.84,SW,234,7.0,7.0,88,0.00,,,0.62,Wunderground v.1.15,2013-06-02 04:40:00,
2013-06-01 23:45:00,61.9,58.3,29.84,SW,233,7.0,9.0,88,0.00,,,0.62,Wunderground v.1.15,2013-06-02 04:45:00,
2013-06-01 23:50:00,61.9,58.3,29.84,SW,231,8.0,8.0,88,0.00,,,0.62,Wunderground v.1.15,2013-06-02 04:50:00,